• In Russia
  • List of Countries
  • For 7 days
  • Water Temperature
  • Satellite Maps
  • Weather Map
  • Weather Widgets
  • user-avatar
    Login

    Hourly Weather Río Gallegos

    Today, 11 December, Monday

    Time Temperature Precipitation Wind Pressure Humidity
    00:00 +11°C° 0 mm 8 mps 751 mmHg 67%
    01:00 +10°C° 0 mm 9 mps 751 mmHg 67%
    02:00 +10°C° 0 mm 7 mps 751 mmHg 67%
    03:00 +9°C° 0 mm 6 mps 751 mmHg 67%
    04:00 +9°C° 0 mm 5 mps 752 mmHg 67%
    05:00 +10°C° 0 mm 6 mps 752 mmHg 64%
    06:00 +11°C° 0 mm 6 mps 752 mmHg 61%
    07:00 +12°C° 0 mm 7 mps 752 mmHg 58%
    08:00 +14°C° 0.1 mm 7 mps 751 mmHg 57%
    09:00 +13°C° 0.1 mm 8 mps 751 mmHg 57%
    10:00 +15°C° 0.1 mm 8 mps 750 mmHg 56%
    11:00 +14°C° 0.8 mm 7 mps 749 mmHg 63%
    12:00 +13°C° 0.8 mm 5 mps 749 mmHg 70%
    13:00 +12°C° 0.8 mm 4 mps 748 mmHg 77%
    14:00 +11°C° 4.9 mm 4 mps 748 mmHg 80%
    15:00 +10°C° 4.9 mm 4 mps 748 mmHg 83%
    16:00 +8°C° 4.9 mm 4 mps 748 mmHg 87%
    17:00 +8°C° 0.8 mm 5 mps 748 mmHg 83%
    18:00 +9°C° 0.8 mm 5 mps 749 mmHg 79%
    19:00 +10°C° 0.8 mm 6 mps 749 mmHg 75%
    20:00 +9°C° 0.1 mm 7 mps 750 mmHg 75%
    21:00 +8°C° 0.1 mm 7 mps 751 mmHg 76%
    22:00 +6°C° 0.1 mm 8 mps 751 mmHg 76%
    23:00 +6°C° 0 mm 8 mps 752 mmHg 77%

    Tomorrow, 12 December, Tuesday

    Time Temperature Precipitation Wind Pressure Humidity
    00:00 +5°C° 0 mm 8 mps 752 mmHg 77%
    01:00 +5°C° 0 mm 7 mps 753 mmHg 78%
    02:00 +4°C° 0 mm 7 mps 753 mmHg 79%
    03:00 +4°C° 0 mm 7 mps 754 mmHg 80%
    04:00 +4°C° 0 mm 7 mps 754 mmHg 81%
    05:00 +6°C° 0 mm 7 mps 755 mmHg 74%
    06:00 +7°C° 0 mm 8 mps 755 mmHg 67%
    07:00 +9°C° 0 mm 8 mps 755 mmHg 60%
    08:00 +11°C° 0 mm 8 mps 755 mmHg 54%
    09:00 +12°C° 0 mm 8 mps 755 mmHg 49%
    10:00 +14°C° 0 mm 7 mps 755 mmHg 44%
    11:00 +15°C° 0 mm 7 mps 755 mmHg 41%
    12:00 +16°C° 0 mm 7 mps 754 mmHg 37%
    13:00 +17°C° 0 mm 8 mps 754 mmHg 34%
    14:00 +17°C° 0 mm 8 mps 754 mmHg 35%
    15:00 +17°C° 0 mm 8 mps 753 mmHg 35%
    16:00 +17°C° 0 mm 8 mps 753 mmHg 36%
    17:00 +16°C° 0 mm 7 mps 753 mmHg 41%
    18:00 +15°C° 0 mm 6 mps 752 mmHg 45%
    19:00 +14°C° 0 mm 5 mps 752 mmHg 50%
    20:00 +13°C° 0 mm 4 mps 752 mmHg 54%
    21:00 +12°C° 0 mm 3 mps 752 mmHg 58%
    22:00 +11°C° 0 mm 3 mps 752 mmHg 62%
    23:00 +10°C° 0 mm 3 mps 751 mmHg 62%

    Day after tomorrow, 13 December, Wednesday

    Time Temperature Precipitation Wind Pressure Humidity
    00:00 +10°C° 0 mm 3 mps 751 mmHg 62%
    01:00 +10°C° 0 mm 3 mps 750 mmHg 62%
    02:00 +9°C° 0 mm 3 mps 750 mmHg 62%
    03:00 +8°C° 0 mm 4 mps 749 mmHg 63%
    04:00 +8°C° 0 mm 5 mps 749 mmHg 63%
    05:00 +9°C° 0 mm 5 mps 749 mmHg 58%
    06:00 +10°C° 0 mm 6 mps 749 mmHg 52%
    07:00 +11°C° 0 mm 6 mps 749 mmHg 47%
    08:00 +13°C° 0 mm 6 mps 748 mmHg 45%
    09:00 +14°C° 0 mm 6 mps 748 mmHg 44%
    10:00 +15°C° 0 mm 6 mps 747 mmHg 42%
    11:00 +16°C° 0 mm 7 mps 747 mmHg 41%
    12:00 +16°C° 0 mm 8 mps 746 mmHg 41%
    13:00 +17°C° 0 mm 9 mps 746 mmHg 40%
    14:00 +17°C° 0 mm 8 mps 745 mmHg 42%
    15:00 +17°C° 0 mm 7 mps 744 mmHg 43%
    16:00 +16°C° 0 mm 7 mps 744 mmHg 45%
    17:00 +16°C° 0.1 mm 7 mps 744 mmHg 48%
    18:00 +15°C° 0.1 mm 6 mps 744 mmHg 52%
    19:00 +14°C° 0.1 mm 6 mps 744 mmHg 55%
    20:00 +13°C° 0.1 mm 5 mps 744 mmHg 58%
    21:00 +12°C° 0.1 mm 5 mps 744 mmHg 60%
    22:00 +11°C° 0.1 mm 4 mps 744 mmHg 62%
    23:00 +11°C° 0 mm 4 mps 743 mmHg 63%

    14 December, Thursday

    Time Temperature Precipitation Wind Pressure Humidity
    00:00 +11°C° 0 mm 3 mps 743 mmHg 64%
    01:00 +10°C° 0 mm 2 mps 742 mmHg 65%
    02:00 +10°C° 0 mm 3 mps 742 mmHg 64%
    03:00 +10°C° 0 mm 3 mps 742 mmHg 63%
    04:00 +10°C° 0 mm 4 mps 741 mmHg 62%
    05:00 +9°C° 0.2 mm 7 mps 741 mmHg 62%
    06:00 +8°C° 0.2 mm 10 mps 741 mmHg 62%
    07:00 +8°C° 0.2 mm 13 mps 742 mmHg 62%
    08:00 +9°C° 0.3 mm 13 mps 742 mmHg 57%
    09:00 +10°C° 0.3 mm 13 mps 742 mmHg 52%
    10:00 +10°C° 0.3 mm 13 mps 742 mmHg 47%
    11:00 +12°C° 0.2 mm 14 mps 743 mmHg 45%
    12:00 +11°C° 0.2 mm 15 mps 743 mmHg 42%
    13:00 +11°C° 0.2 mm 16 mps 743 mmHg 39%
    14:00 +11°C° 0 mm 15 mps 744 mmHg 39%
    15:00 +10°C° 0 mm 15 mps 745 mmHg 38%
    16:00 +10°C° 0 mm 14 mps 746 mmHg 38%
    17:00 +9°C° 0 mm 13 mps 746 mmHg 42%
    18:00 +9°C° 0 mm 12 mps 747 mmHg 46%
    19:00 +8°C° 0 mm 11 mps 747 mmHg 50%
    20:00 +7°C° 0 mm 10 mps 747 mmHg 54%
    21:00 +6°C° 0 mm 9 mps 748 mmHg 58%
    22:00 +6°C° 0 mm 8 mps 748 mmHg 62%
    23:00 +5°C° 0 mm 7 mps 748 mmHg 64%

    15 December, Friday

    Time Temperature Precipitation Wind Pressure Humidity
    00:00 +5°C° 0 mm 6 mps 747 mmHg 66%
    01:00 +6°C° 0 mm 5 mps 747 mmHg 69%
    02:00 +6°C° 0 mm 5 mps 746 mmHg 68%
    03:00 +6°C° 0 mm 4 mps 746 mmHg 67%
    04:00 +6°C° 0 mm 4 mps 745 mmHg 66%
    05:00 +5°C° 0.2 mm 6 mps 744 mmHg 65%
    06:00 +6°C° 0.2 mm 8 mps 743 mmHg 64%
    07:00 +6°C° 0.2 mm 10 mps 742 mmHg 64%
    08:00 +7°C° 0.1 mm 10 mps 740 mmHg 62%
    09:00 +9°C° 0.1 mm 11 mps 738 mmHg 61%
    10:00 +11°C° 0.1 mm 11 mps 737 mmHg 59%
    11:00 +12°C° 0 mm 10 mps 735 mmHg 56%
    12:00 +14°C° 0 mm 10 mps 734 mmHg 53%
    13:00 +16°C° 0 mm 9 mps 733 mmHg 50%
    14:00 +16°C° 0.1 mm 11 mps 732 mmHg 49%
    15:00 +15°C° 0.1 mm 12 mps 732 mmHg 47%
    16:00 +15°C° 0.1 mm 13 mps 731 mmHg 46%
    17:00 +14°C° 0 mm 13 mps 732 mmHg 45%
    18:00 +12°C° 0 mm 12 mps 732 mmHg 45%
    19:00 +10°C° 0 mm 12 mps 732 mmHg 44%
    20:00 +9°C° 0 mm 11 mps 732 mmHg 46%
    21:00 +8°C° 0 mm 9 mps 732 mmHg 48%
    22:00 +7°C° 0 mm 8 mps 732 mmHg 50%
    23:00 +6°C° 0 mm 8 mps 731 mmHg 50%

    16 December, Saturday

    Time Temperature Precipitation Wind Pressure Humidity
    00:00 +6°C° 0 mm 9 mps 731 mmHg 50%
    01:00 +6°C° 0 mm 9 mps 730 mmHg 51%
    02:00 +6°C° 0 mm 9 mps 730 mmHg 56%
    03:00 +5°C° 0 mm 8 mps 730 mmHg 62%
    04:00 +5°C° 0 mm 8 mps 730 mmHg 67%
    05:00 +6°C° 0.1 mm 9 mps 731 mmHg 66%
    06:00 +6°C° 0.1 mm 11 mps 732 mmHg 65%
    07:00 +7°C° 0.1 mm 12 mps 733 mmHg 64%
    08:00 +7°C° 0.2 mm 13 mps 735 mmHg 60%
    09:00 +6°C° 0.2 mm 14 mps 736 mmHg 56%
    10:00 +6°C° 0.2 mm 15 mps 738 mmHg 51%
    11:00 +6°C° 0.1 mm 15 mps 739 mmHg 47%
    12:00 +8°C° 0.1 mm 14 mps 740 mmHg 43%
    13:00 +8°C° 0.1 mm 14 mps 741 mmHg 38%
    14:00 +8°C° 0.1 mm 14 mps 742 mmHg 38%
    15:00 +8°C° 0.1 mm 14 mps 743 mmHg 38%
    16:00 +8°C° 0.1 mm 14 mps 743 mmHg 38%
    17:00 +7°C° 0 mm 13 mps 744 mmHg 41%
    18:00 +5°C° 0 mm 12 mps 745 mmHg 45%
    19:00 +5°C° 0 mm 12 mps 746 mmHg 48%
    20:00 +5°C° 0.5 mm 10 mps 746 mmHg 54%
    21:00 +5°C° 0.5 mm 9 mps 747 mmHg 61%
    22:00 +4°C° 0.5 mm 7 mps 747 mmHg 68%
    23:00 +4°C° 0.6 mm 7 mps 747 mmHg 70%
    Show more